Total_Precipitation_Accumulation
2.16 2.14 1.66 0.99 0.82 0.64 0.56 0.59 0.55 0.45 0.47 0.61 0.66 0.68 0.72 0.72 0.72 0.76 0.80 0.82 0.84 0.96 1.26 1.39 1.48 1.79 2.11 2.34 2.56 2.78 2.94 3.01 3.29 3.51 3.51 3.44 3.34 3.11 3.02 3.04 2.99 2.88 2.81 2.94
1.93 1.51 0.90 0.68 0.71 0.73 0.73 0.73 0.64 0.51 0.45 0.62 0.67 0.68 0.63 0.62 0.72 0.81 0.81 0.86 0.92 0.94 1.14 1.29 1.38 1.57 1.83 2.12 2.41 2.68 2.85 2.96 2.96 3.02 3.27 3.45 3.58 3.45 3.15 3.02 2.99 2.91 2.81 2.82
1.46 0.91 0.68 0.81 0.83 0.88 0.78 0.67 0.59 0.59 0.60 0.70 0.72 0.78 0.61 0.60 0.65 0.71 0.75 0.81 0.85 0.90 1.00 1.13 1.29 1.54 1.70 1.88 2.19 2.52 2.72 2.91 2.92 2.94 3.24 3.50 3.68 3.57 3.26 2.88 2.77 2.83 2.82 2.81
1.29 0.79 0.76 0.93 0.81 0.75 0.76 0.45 0.47 0.57 0.80 0.92 0.80 1.04 0.69 0.61 0.64 0.68 0.74 0.74 0.76 0.82 0.86 0.93 1.08 1.30 1.49 1.69 1.90 2.12 2.37 2.62 2.89 2.99 3.07 3.15 3.24 3.23 2.97 2.83 2.74 2.82 2.86 2.83
1.27 0.85 0.88 0.97 0.69 0.60 0.62 0.41 0.51 0.63 0.83 0.95 0.72 0.95 0.77 0.51 0.58 0.69 0.78 0.76 0.76 0.82 0.85 0.89 1.05 1.25 1.35 1.52 1.80 1.97 2.08 2.34 2.65 2.87 2.91 3.10 3.10 3.07 3.10 3.06 2.95 2.88 2.86 2.80
0.93 0.75 0.88 0.79 0.60 0.61 0.66 0.65 0.76 0.84 1.23 1.35 0.59 0.72 0.75 0.58 0.64 0.64 0.65 0.70 0.76 0.82 0.91 1.00 1.14 1.24 1.29 1.41 1.65 1.87 1.91 2.04 2.25 2.59 2.87 2.97 2.96 3.00 2.99 2.94 2.85 2.82 2.83 2.78
1.16 0.89 0.75 0.70 0.85 0.81 0.87 1.17 1.64 1.72 1.65 0.96 0.36 0.57 0.78 0.59 0.57 0.60 0.61 0.64 0.70 0.80 0.86 0.97 1.11 1.13 1.18 1.31 1.50 1.69 1.80 1.92 2.03 2.25 2.55 2.80 2.93 3.00 3.01 2.97 2.87 2.72 2.62 2.51
1.19 1.18 0.75 0.67 0.85 0.93 0.82 0.95 1.26 1.22 0.76 0.47 0.36 0.57 0.69 0.53 0.46 0.42 0.45 0.54 0.62 0.72 0.75 0.80 0.95 1.03 1.11 1.23 1.34 1.44 1.53 1.61 1.71 1.81 2.00 2.30 2.65 2.83 2.81 2.82 2.76 2.65 2.51 2.45
0.94 0.83 0.49 0.44 0.48 0.63 0.87 0.87 0.70 1.12 0.83 0.62 0.48 0.51 0.52 0.38 0.37 0.37 0.41 0.51 0.63 0.73 0.78 0.77 0.85 0.92 0.99 1.12 1.26 1.29 1.35 1.43 1.54 1.61 1.70 1.86 2.17 2.41 2.49 2.54 2.51 2.41 2.32 2.33
0.80 0.84 0.48 0.40 0.51 0.56 0.62 0.68 0.91 1.53 1.43 0.95 0.56 0.48 0.63 0.49 0.40 0.42 0.49 0.56 0.66 0.78 0.78 0.74 0.79 0.87 0.88 0.98 1.14 1.18 1.26 1.35 1.51 1.58 1.64 1.72 1.84 1.99 2.19 2.32 2.24 2.20 2.17 2.16
0.69 0.92 0.68 0.53 0.60 0.56 0.53 0.73 0.92 1.14 1.12 1.12 0.76 0.69 0.72 0.61 0.53 0.51 0.55 0.63 0.74 0.77 0.80 0.83 0.85 0.89 0.93 1.00 1.07 1.10 1.18 1.29 1.46 1.55 1.56 1.57 1.64 1.71 1.84 1.96 2.02 1.98 2.03 2.05
0.57 0.92 0.79 0.45 0.32 0.33 0.48 0.57 0.77 1.29 1.07 0.86 0.87 0.83 0.62 0.54 0.54 0.53 0.54 0.60 0.68 0.68 0.75 0.83 0.85 0.87 0.97 1.02 1.03 1.01 1.06 1.14 1.29 1.38 1.39 1.42 1.47 1.56 1.65 1.72 1.82 1.83 1.84 1.89
0.88 1.27 1.19 0.78 0.62 0.57 0.66 0.52 0.57 0.95 1.27 1.02 0.99 0.87 0.57 0.46 0.47 0.49 0.53 0.59 0.60 0.59 0.61 0.67 0.74 0.77 0.83 0.86 0.90 0.97 0.97 0.96 1.03 1.11 1.12 1.17 1.22 1.31 1.46 1.54 1.57 1.63 1.67 1.70
1.23 1.29 0.99 0.86 0.72 0.79 0.77 0.51 0.51 1.15 1.61 0.96 0.65 0.65 0.56 0.52 0.56 0.56 0.57 0.57 0.56 0.55 0.55 0.61 0.69 0.68 0.73 0.79 0.80 0.87 0.87 0.87 0.93 0.97 0.97 1.01 1.05 1.10 1.21 1.32 1.38 1.42 1.46 1.50
1.09 1.12 0.55 0.48 0.50 0.68 0.67 0.50 0.49 0.79 0.81 0.87 0.56 0.50 0.59 0.62 0.69 0.66 0.62 0.55 0.48 0.48 0.50 0.57 0.68 0.72 0.71 0.78 0.80 0.80 0.87 0.92 0.98 1.01 1.00 0.98 0.98 1.00 1.07 1.16 1.24 1.30 1.33 1.32
0.97 1.04 0.64 0.54 0.46 0.59 0.57 0.38 0.37 0.42 0.46 0.52 0.44 0.54 0.55 0.57 0.61 0.63 0.62 0.52 0.44 0.44 0.47 0.50 0.60 0.76 0.72 0.79 0.89 0.88 0.94 1.03 1.05 1.09 1.04 1.01 0.97 0.96 0.96 1.00 1.06 1.12 1.22 1.25
1.02 1.16 1.28 0.90 0.45 0.65 0.70 0.48 0.43 0.45 0.46 0.48 0.58 0.59 0.47 0.52 0.60 0.64 0.58 0.47 0.43 0.43 0.43 0.47 0.53 0.70 0.79 0.83 0.95 1.03 1.06 1.13 1.12 1.13 1.06 1.00 0.95 0.93 0.93 0.94 0.97 1.04 1.12 1.21
0.89 1.18 1.68 1.35 0.85 0.99 0.69 0.47 0.44 0.46 0.48 0.46 0.49 0.45 0.45 0.51 0.56 0.55 0.50 0.45 0.40 0.38 0.38 0.43 0.49 0.55 0.68 0.74 0.84 0.97 1.04 1.16 1.17 1.17 1.16 1.12 1.09 1.09 1.12 1.13 1.17 1.21 1.21 1.28
0.51 1.07 1.72 1.54 1.10 0.62 0.36 0.29 0.43 0.53 0.55 0.45 0.39 0.36 0.32 0.34 0.42 0.50 0.43 0.41 0.43 0.41 0.39 0.40 0.43 0.46 0.52 0.62 0.70 0.82 1.00 1.17 1.29 1.36 1.37 1.39 1.39 1.41 1.43 1.44 1.45 1.46 1.50 1.54
0.41 0.85 1.66 1.61 1.30 0.66 0.37 0.20 0.26 0.45 0.67 0.38 0.30 0.32 0.29 0.29 0.45 0.52 0.46 0.41 0.41 0.40 0.39 0.39 0.40 0.42 0.46 0.59 0.67 0.82 1.06 1.27 1.42 1.47 1.51 1.53 1.60 1.65 1.60 1.55 1.51 1.44 1.43 1.48
0.55 1.01 1.40 1.29 1.24 0.66 0.40 0.21 0.22 0.63 0.79 0.38 0.33 0.35 0.35 0.42 0.51 0.44 0.40 0.42 0.42 0.44 0.47 0.48 0.50 0.54 0.58 0.65 0.75 0.93 1.09 1.25 1.36 1.39 1.42 1.44 1.43 1.44 1.40 1.36 1.31 1.28 1.26 1.23
0.50 0.79 0.87 0.96 1.30 0.90 0.44 0.32 0.58 0.78 0.50 0.39 0.33 0.33 0.37 0.38 0.35 0.32 0.30 0.33 0.36 0.39 0.47 0.57 0.64 0.69 0.70 0.74 0.84 0.93 1.00 1.06 1.08 1.11 1.14 1.15 1.09 1.03 1.03 1.06 1.06 1.05 1.06 1.05
0.56 0.77 0.87 0.92 0.98 0.78 0.59 0.65 0.71 0.60 0.52 0.41 0.37 0.34 0.34 0.34 0.32 0.29 0.26 0.26 0.27 0.28 0.32 0.38 0.48 0.55 0.56 0.57 0.63 0.70 0.69 0.68 0.70 0.72 0.79 0.83 0.82 0.79 0.78 0.83 0.87 0.89 0.92 0.94
0.54 0.51 0.68 0.77 0.69 0.56 0.54 0.54 0.53 0.51 0.52 0.46 0.41 0.38 0.36 0.37 0.33 0.30 0.27 0.25 0.24 0.24 0.26 0.29 0.32 0.36 0.38 0.39 0.42 0.46 0.47 0.45 0.47 0.54 0.61 0.69 0.74 0.76 0.76 0.78 0.82 0.86 0.88 0.92
0.52 0.53 0.65 0.70 0.57 0.51 0.47 0.46 0.48 0.46 0.42 0.40 0.36 0.35 0.35 0.36 0.35 0.32 0.31 0.30 0.29 0.27 0.28 0.30 0.33 0.34 0.36 0.37 0.38 0.40 0.43 0.42 0.44 0.47 0.53 0.60 0.68 0.75 0.77 0.77 0.80 0.87 0.88 1.01
0.53 0.64 0.82 0.79 0.60 0.68 0.59 0.48 0.45 0.43 0.40 0.40 0.39 0.38 0.37 0.36 0.38 0.35 0.34 0.34 0.33 0.33 0.31 0.31 0.34 0.38 0.41 0.43 0.46 0.46 0.47 0.47 0.48 0.50 0.52 0.59 0.66 0.72 0.77 0.80 0.82 0.87 0.91 0.98